Theta_e
309 309 308 309 309 310 310 311 311 311 314 315 316 317 316 316 316 317 315 314 313 312
304 304 304 304 305 305 306 305 306 307 308 309 310 311 312 313 313 312 312 312 312 311
302 302 302 302 301 301 302 301 302 302 303 304 305 307 308 308 310 310 310 309 310 310
300 300 300 299 299 298 299 299 298 298 299 300 300 302 302 303 304 304 305 306 306 305
297 297 297 296 296 297 296 297 297 297 297 297 297 298 298 298 300 300 300 302 303 302
295 294 294 294 294 294 294 294 295 295 295 295 296 295 296 296 296 297 298 298 299 299
293 293 292 292 292 292 292 292 293 293 293 293 293 294 294 294 293 294 295 296 295 295
292 292 291 291 291 290 290 290 291 290 290 291 291 292 291 290 290 290 291 291 292 292
290 289 289 289 288 288 288 289 288 288 288 288 290 291 291 290 288 288 288 288 289 290
288 287 287 286 286 286 286 287 286 287 287 287 288 290 290 289 287 287 287 288 288 288
285 284 284 284 284 285 285 285 285 285 286 286 286 288 288 288 286 286 287 287 287 287
283 282 282 281 282 283 283 283 283 283 283 284 284 287 287 287 285 285 285 286 286 286
281 279 279 280 280 282 282 281 282 281 282 282 283 286 287 287 285 283 283 284 285 285
278 277 277 278 279 279 280 281 281 282 282 282 283 284 286 287 284 283 282 282 283 285
Wind_Speed
10 7 6 7 6 5 6 6 9 8 8 9 9 8 8 5 6 7 8 11 10 9
10 10 8 9 8 6 6 6 7 8 8 9 9 8 9 7 8 8 8 9 10 9
9 9 8 7 8 9 8 9 8 8 8 8 8 8 9 8 8 9 8 8 12 11
8 9 8 8 8 8 8 9 9 9 9 9 9 9 8 9 10 10 11 10 11 12
9 9 9 9 9 9 9 8 8 9 9 9 10 9 9 10 10 11 11 12 12 13
9 9 8 8 9 9 9 9 9 8 8 9 9 9 9 9 10 11 11 12 12 13
7 7 8 8 9 10 9 10 10 9 10 10 10 10 9 10 11 12 11 12 12 12
6 8 8 7 7 7 7 8 9 9 9 9 8 7 8 11 11 12 13 12 12 11
5 4 5 6 7 7 7 7 7 8 9 9 8 13 15 14 11 12 12 13 13 12
4 6 7 7 8 8 9 9 9 10 10 11 11 15 18 18 11 12 12 13 13 12
6 6 7 8 8 8 9 10 10 11 11 11 10 18 20 19 13 12 14 14 13 14
6 7 8 8 10 10 10 11 10 10 12 12 12 19 21 18 11 12 15 14 15 14
7 7 9 10 11 10 10 11 9 12 12 15 14 18 20 17 10 14 12 14 13 14
8 9 9 10 10 10 11 12 12 13 13 15 14 15 20 21 11 10 11 11 11 9
Wind_Direction
52 57 52 43 25 22 8 0 350 338 329 322 318 309 297 292 287 280 263 254 248 252
53 52 47 42 35 22 16 2 346 344 336 329 322 317 310 294 284 286 282 274 263 256
54 51 44 41 32 19 6 2 355 352 345 337 332 327 319 306 300 296 288 283 285 282
50 43 41 34 25 14 359 357 352 347 339 335 331 331 323 314 307 302 298 292 285 282
43 35 31 23 15 5 360 351 344 342 337 332 328 326 321 315 313 307 301 297 292 285
37 28 21 12 2 357 349 343 337 332 327 321 317 315 314 311 311 304 298 297 295 294
28 12 10 0 355 347 342 332 333 331 325 323 319 314 310 324 314 305 299 298 293 290
11 358 347 343 332 325 309 310 311 311 307 308 307 302 321 309 303 298 297 292 288 283
338 329 332 329 319 311 306 308 307 299 296 298 297 305 303 303 298 293 293 293 291 287
336 339 340 327 323 317 315 312 305 300 300 297 296 296 298 301 297 293 287 287 289 290
350 338 327 322 315 314 314 311 308 304 301 297 296 300 303 304 297 289 287 288 291 291
345 329 323 320 320 319 316 311 308 303 302 298 297 306 307 309 304 297 299 300 297 298
334 327 323 317 313 310 304 300 305 305 306 306 302 304 308 314 307 302 305 303 303 294
328 320 307 305 306 305 301 298 299 299 300 299 302 304 308 307 306 302 302 302 307 302